Гран При Сингапура: третья тренировка

Гран При Сингапура: третья тренировка

Субботняя тренировка  в Сингапуре началась в 18:00 по местному времени. Солнце начало заходить, асфальт постепенно остывал. А после ночного дождя траектория, покрытая отработанной резиной, опять стала чистой.

Гонщики жаловались на недостаточное сцепление, машины скользили, поэтому не обошлось без ошибок на торможении.

Пастору Мальдонадо сменили шасси после пятничной аварии, Себастьян Феттель наконец-то смог провести полноценную тренировку – из-за замены мотора он фактически пропустил вторую тренировку.

На быстром круге у Хэмилтона заглох двигатель, Льюис избежал контакта с барьером и смог его перезапустить, но возникли проблемы с управляемостью – инженерам пришлось заняться машиной.

На холодной асфальте лучшим оказался Фернандо Алонсо, но в секунде от него еще восемь пилотов.

 
Дата20 сентября 2014Погодасухо
Киевское время13:00-14:00 ч.Температура27-28°C
Местное время18:00-19:00 ч.Влажность76-78%
Участники22Давление1.010 mBar
Рекорд в гонке1:45.599 мин.Асфальт35-36°C
Рекорд в квалификации1:42.841 мин.Ветер1,5 м/с, южный

Результаты

Поз.ПилотКомандаВремяОтставаниеот пред.круги
114F. AlonsoFerrari1:47.299  12
23D. RicciardoRed Bull1:47.350+0:00.051+0:00.05115
36N. RosbergMercedes1:47.488+0:00.189+0:00.13815
425J. VergneToro Rosso1:47.693+0:00.394+0:00.20517
51S. VettelRed Bull1:47.711+0:00.412+0:00.01817
644L. HamiltonMercedes1:47.738+0:00.439+0:00.02712
719F. MassaWilliams1:47.909+0:00.610+0:00.17115
877V. BottasWilliams1:48.205+0:00.906+0:00.29615
97K. RäikkönenFerrari1:48.226+0:00.927+0:00.02116
1021E. GutierrezSauber1:48.422+0:01.123+0:00.19620
1127N. HülkenbergForce India1:48.450+0:01.151+0:00.02811
1220K. MagnussenMcLaren1:48.577+0:01.278+0:00.1279
1322J. ButtonMcLaren1:48.599+0:01.300+0:00.02216
1426D. KwjatToro Rosso1:48.637+0:01.338+0:00.03818
1511S. PerezForce India1:49.078+0:01.779+0:00.44115
1699A. SutilSauber1:49.115+0:01.816+0:00.03719
178R. GrosjeanLotus1:49.485+0:02.186+0:00.37017
1813P. MaldonadoLotus1:50.149+0:02.850+0:00.66415
1917J. BianchiMarussia1:50.376+0:03.077+0:00.22717
2010K. KobayashiCaterham1:50.939+0:03.640+0:00.56317
214M. ChiltonMarussia1:51.221+0:03.922+0:00.28216
229M. EricssonCaterham1:51.598+0:04.299+0:00.37717
 107 % барьер1:54.809 
от пред. = от предыдущего


 

Будьте частиною чогось більшого

Написати коментар
Показати коментарі
Про цю статтю
Серія Формула 1
Тип статті Важливі новини